[[{"header":{"parameterUnit":"m.s-1","parameterCategory":1,"la1":30.2991,"la2":30.254,"lo1":-89.0895,"lo2":-89.0444,"dy":0.0017,"dx":0.0017,"nx":28,"ny":28,"refTime":"2025-12-30T09:00:00:Z","depth":0,"parameterNumber":2,"parameterNumberName":"U-component_of_WINDS"},"data":[0,0,0,0,0,0,0,0,0,0,0,0,0,0,0,0,0,0,0,0,0,0,0,0,0,0,0,0,0,0,0,0,0,0,0,0,0,0,0,0,0,0,0,0,0,0,0,0,0,0,0,0,0,0,0,0,0,0,2.3002,2.3002,0,2.2994,2.2993,2.2993,2.2947,2.2946,2.2944,2.2943,2.2935,2.2936,2.2936,0,0,0,0,0,0,0,0,0,0,0,0,0,2.298,2.298,2.3002,2.3002,2.3002,2.2994,2.2993,2.2993,2.2947,2.2946,2.2944,2.2943,2.2935,2.2935,2.2936,0,0,0,0,0,0,0,0,0,0,0,0,0,2.2982,2.2981,2.3002,2.2978,2.2976,2.2994,2.2993,2.2993,2.2947,2.2946,2.2944,2.2942,2.2934,2.2935,2.2937,2.2977,0,0,2.294,2.2941,0,0,0,0,0,0,0,0,2.2982,2.2983,2.2982,2.298,2.2977,2.2969,2.2982,2.2988,2.2948,2.2958,2.2943,2.2941,2.2948,2.2948,2.295,2.2977,2.2977,2.294,2.2941,2.2942,2.2942,0,0,0,0,0,0,0,2.2982,2.2983,2.2999,2.2982,2.2979,2.2968,2.2966,2.2983,2.2962,2.2957,2.2954,2.2953,2.2946,2.2949,2.2949,2.2976,2.294,2.2941,2.2942,2.2943,2.3037,2.3039,0,0,0,0,0,0,2.2985,2.2983,2.2999,2.2999,2.2976,2.2969,2.2968,2.2974,2.2962,2.2959,2.2955,2.2951,2.2947,2.2948,2.2949,2.2995,2.2942,2.2943,2.2943,2.3035,2.3038,2.304,0,0,0,0,0,0,2.2985,2.2987,2.2999,2.299,2.2991,2.2972,2.2979,2.2974,2.2977,2.296,2.2956,2.2961,2.2946,2.2947,2.2971,2.2994,2.2943,2.2944,2.3033,2.3036,2.3039,2.309,0,0,0,0,0,0,2.2984,2.2987,2.3002,2.2991,2.2991,2.3021,2.298,2.2975,2.2979,2.2974,2.2965,2.2962,2.2945,2.2969,2.2972,2.2995,2.2945,2.3031,2.3035,2.3038,2.3086,2.3094,2.3101,0,0,0,0,0,2.2984,2.3017,2.3003,2.3005,2.301,2.3023,2.3023,2.3003,2.2981,2.2996,2.2986,2.2962,2.2992,2.2972,2.2975,2.2999,2.3029,2.3034,2.3037,2.3082,2.3092,2.31,0,0,0,0,0,0,2.3031,2.3015,2.2999,2.303,2.3028,2.3015,2.3033,2.3014,2.3018,2.3013,2.2988,2.2987,2.3014,2.3009,2.2987,2.3038,2.3007,2.3011,2.304,2.3049,2.3056,2.3056,2.2946,0,0,0,0,0,2.3045,2.3057,2.3042,2.3071,2.3071,2.3052,2.3057,2.3042,2.3039,2.3038,2.3029,2.3027,2.3036,2.3043,2.305,2.3085,2.3083,2.3103,2.3111,2.3117,2.3121,2.3139,2.3148,2.3053,2.3053,2.3053,0,0,2.3074,2.3067,2.3076,2.308,2.3077,2.309,2.3052,2.3067,2.3076,2.304,2.3062,2.3056,2.3052,2.3082,2.3095,2.3078,2.3147,2.3122,2.3127,2.3128,2.3145,2.3154,2.3162,2.3055,2.3055,2.3055,0,0,2.3133,2.3129,2.3152,2.315,2.3146,2.3134,2.314,2.313,2.3124,2.3146,2.3119,2.313,2.3146,2.3144,2.3146,2.3206,2.3185,2.321,2.3248,2.3266,2.3274,2.328,2.3301,2.3309,2.3214,2.3214,2.3214,0,2.317,2.3188,2.3166,2.3184,2.3186,2.3155,2.3178,2.3177,2.3176,2.3178,2.3161,2.318,2.3176,2.3205,2.322,2.3222,2.3228,2.321,2.3275,2.3281,2.3287,2.3306,2.3314,2.3217,2.3217,2.3217,2.3216,0,2.3233,2.3246,2.3265,2.3265,2.327,2.329,2.3272,2.328,2.3265,2.3255,2.3277,2.3271,2.3276,2.3283,2.3268,2.331,2.33,2.3279,2.3247,2.3299,2.3317,2.3325,2.3221,2.322,2.3219,2.3219,0,0,2.332,2.3308,2.3316,2.3315,2.3309,2.3319,2.3338,2.3344,2.3351,2.3352,2.3367,2.3382,2.3363,2.3364,2.3349,2.3366,2.3414,2.3342,2.3342,2.3355,2.3459,2.3474,2.3483,2.34,2.3402,2.3403,2.3459,0,2.3376,2.3407,2.3389,2.3424,2.3436,2.3407,2.3424,2.3422,2.3414,2.3423,2.3414,2.3424,2.3398,2.3399,2.3414,2.3405,2.3434,2.34,2.3414,2.3415,2.3414,2.3493,2.3509,2.3562,2.3466,2.3468,2.3468,0,2.3445,2.3449,2.3484,2.3477,2.3481,2.3496,2.35,2.351,2.3508,2.35,2.3503,2.3484,2.3503,2.3473,2.3498,2.3476,2.348,2.3477,2.3478,2.3478,2.3444,2.3494,2.3579,2.3587,2.348,2.3479,2.3478,0,2.3504,2.3518,2.3541,2.3542,2.3534,2.3545,2.3542,2.3539,2.3543,2.3547,2.355,2.3556,2.3559,2.3565,2.3548,2.3528,2.3576,2.3544,2.357,2.3571,2.358,2.358,2.3667,2.3586,2.3585,2.3585,2.3585,0,2.3568,2.359,2.3568,2.3582,2.3607,2.3587,2.3612,2.3606,2.3603,2.3616,2.3592,2.3604,2.3582,2.3593,2.358,2.3603,2.3605,2.36,2.3596,2.3601,2.3602,2.3603,2.3598,2.3587,2.3587,2.3587,2.3586,0,2.3637,2.3623,2.3646,2.3637,2.3635,2.3654,2.3646,2.3659,2.3649,2.3666,2.3669,2.3654,2.3665,2.365,2.3659,2.3651,2.3682,2.3673,2.3682,2.3679,2.3706,2.3703,2.3796,2.3807,2.372,2.3721,2.3721,0,2.3678,2.3695,2.3688,2.3694,2.3693,2.3704,2.3709,2.3691,2.3697,2.3696,2.3709,2.3718,2.3724,2.3744,2.3734,2.3741,2.3732,2.3764,2.3733,2.3738,2.3731,2.373,2.3731,2.377,2.3771,2.3772,2.3772,0,2.3752,2.3744,2.3752,2.3758,2.3765,2.3769,2.3771,2.3778,2.3758,2.3766,2.3777,2.3782,2.3793,2.3802,2.3807,2.3804,2.3785,2.3783,2.3789,2.3794,2.3798,2.3795,2.3699,2.378,2.3779,2.3779,2.3778,2.3778,2.3808,2.3821,2.3819,2.3829,2.3828,2.3831,2.3843,2.3835,2.3844,2.3851,2.3839,2.3854,2.3852,2.3857,2.3856,2.3867,2.3853,2.3862,2.3864,2.3867,2.387,2.3798,2.3868,2.3868,2.3868,2.3867,2.3867,0,2.388,2.3877,2.3886,2.389,2.3898,2.388,2.3882,2.3889,2.3902,2.3902,2.3909,2.3922,2.3932,2.3923,2.3931,2.3941,2.3933,2.3944,2.3942,2.3942,2.3883,2.3876,2.3951,2.3951,2.3951,2.3951,2.3951,2.3951,2.3918,2.394,2.3933,2.3955,2.3952,2.3965,2.3968,2.397,2.397,2.3986,2.3994,2.3988,2.3985,2.3993,2.4,2.3998,2.4001,2.4015,2.401,2.3954,2.3946,2.3938,2.3932,2.4017,2.4017,2.4067,2.4068,2.4068]},{"header":{"parameterUnit":"m.s-1","parameterCategory":1,"la1":30.2991,"la2":30.254,"lo1":-89.0895,"lo2":-89.0444,"dy":0.0017,"dx":0.0017,"nx":28,"ny":28,"refTime":"2025-12-30T09:00:00:Z","depth":0,"parameterNumber":3,"parameterNumberName":"V-component_of_WINDS"},"data":[0,0,0,0,0,0,0,0,0,0,0,0,0,0,0,0,0,0,0,0,0,0,0,0,0,0,0,0,0,0,0,0,0,0,0,0,0,0,0,0,0,0,0,0,0,0,0,0,0,0,0,0,0,0,0,0,0,0,-5.8367,-5.8369,0,-5.8553,-5.8555,-5.8557,-5.8512,-5.8508,-5.8505,-5.8501,-5.8688,-5.8696,-5.8704,0,0,0,0,0,0,0,0,0,0,0,0,0,-5.7971,-5.7979,-5.8367,-5.8369,-5.8372,-5.8552,-5.8555,-5.8557,-5.8512,-5.8508,-5.8504,-5.85,-5.8685,-5.8695,-5.8705,0,0,0,0,0,0,0,0,0,0,0,0,0,-5.8149,-5.7981,-5.8367,-5.8371,-5.8373,-5.8552,-5.8555,-5.8558,-5.8513,-5.8508,-5.8503,-5.8498,-5.8682,-5.8694,-5.8706,-5.8891,0,0,-5.8744,-5.875,0,0,0,0,0,0,0,0,-5.8139,-5.8163,-5.8368,-5.8371,-5.8374,-5.8504,-5.8484,-5.8669,-5.8515,-5.846,-5.8501,-5.8495,-5.8631,-5.8647,-5.8694,-5.8899,-5.8907,-5.8746,-5.8753,-5.8758,-5.8762,0,0,0,0,0,0,0,-5.8126,-5.8155,-5.844,-5.8371,-5.8375,-5.8363,-5.8382,-5.8519,-5.8573,-5.8465,-5.8462,-5.8484,-5.8631,-5.8682,-5.8698,-5.891,-5.8745,-5.8756,-5.8764,-5.8769,-5.9276,-5.9281,0,0,0,0,0,0,-5.8112,-5.8145,-5.8434,-5.8446,-5.8241,-5.8374,-5.8396,-5.8467,-5.8572,-5.8582,-5.8489,-5.8482,-5.8663,-5.8683,-5.8704,-5.8926,-5.8758,-5.877,-5.8777,-5.927,-5.9277,-5.9283,0,0,0,0,0,0,-5.8104,-5.8138,-5.8427,-5.8295,-5.8331,-5.8387,-5.8468,-5.8474,-5.8524,-5.859,-5.8599,-5.8531,-5.866,-5.8686,-5.8845,-5.8932,-5.8776,-5.8787,-5.9263,-5.9272,-5.928,-5.9372,0,0,0,0,0,0,-5.8093,-5.8136,-5.8207,-5.8297,-5.8338,-5.8566,-5.8473,-5.8481,-5.8546,-5.8539,-5.8632,-5.8642,-5.8657,-5.8826,-5.8857,-5.8946,-5.8797,-5.9255,-5.9267,-5.9277,-5.9362,-5.9383,-5.9402,0,0,0,0,0,-5.8079,-5.8225,-5.8211,-5.8246,-5.8428,-5.8571,-5.8594,-5.861,-5.8553,-5.8625,-5.8667,-5.8639,-5.8918,-5.8843,-5.8877,-5.8972,-5.9249,-5.9263,-5.9276,-5.9353,-5.9379,-5.9401,0,0,0,0,0,0,-5.8143,-5.8237,-5.8222,-5.8402,-5.8479,-5.8563,-5.8654,-5.8638,-5.8732,-5.8721,-5.8735,-5.8757,-5.8918,-5.896,-5.8876,-5.9155,-5.9075,-5.9096,-5.9121,-5.9147,-5.9167,-5.9153,-5.8807,0,0,0,0,0,-5.8178,-5.8287,-5.8363,-5.8514,-5.8554,-5.8598,-5.866,-5.8666,-5.8746,-5.8778,-5.8831,-5.8909,-5.9014,-5.9083,-5.9183,-5.9368,-5.9387,-5.9449,-5.9469,-5.9486,-5.9503,-5.9604,-5.9632,-5.9328,-5.9327,-5.9327,0,0,-5.8252,-5.8317,-5.8384,-5.8529,-5.8589,-5.8701,-5.8625,-5.8746,-5.8829,-5.8796,-5.8949,-5.8991,-5.9078,-5.925,-5.9329,-5.9291,-5.9592,-5.9503,-5.9515,-5.9524,-5.962,-5.9649,-5.9675,-5.9337,-5.9335,-5.9334,0,0,-5.8443,-5.8504,-5.8636,-5.8699,-5.8791,-5.8819,-5.8851,-5.8938,-5.8965,-5.9119,-5.9096,-5.9194,-5.9375,-5.9438,-5.9494,-5.9709,-5.9686,-5.9741,-5.9846,-5.9944,-5.9968,-5.9989,-6.0065,-6.0093,-5.9759,-5.9759,-5.9759,0,-5.8523,-5.8691,-5.8706,-5.883,-5.8894,-5.887,-5.9004,-5.9063,-5.9183,-5.9228,-5.9183,-5.941,-5.9467,-5.9653,-5.9706,-5.9752,-5.9788,-5.9731,-5.9963,-5.9985,-6.0005,-6.0078,-6.0107,-5.9765,-5.9765,-5.9764,-5.9763,0,-5.8785,-5.8901,-5.8997,-5.9115,-5.919,-5.9318,-5.9351,-5.9425,-5.9424,-5.9457,-5.9613,-5.9681,-5.9795,-5.9839,-5.9839,-6.0026,-5.9999,-5.9959,-5.9879,-6.004,-6.0108,-6.0137,-5.9774,-5.9772,-5.977,-5.9768,0,0,-5.9022,-5.9146,-5.9181,-5.9234,-5.9335,-5.9425,-5.9551,-5.9663,-5.9726,-5.9809,-5.9915,-6.0069,-6.0033,-6.0096,-6.0103,-6.0188,-6.0354,-6.0138,-6.014,-6.0175,-6.0563,-6.0593,-6.0625,-6.034,-6.0345,-6.0349,-6.0556,0,-5.9222,-5.9446,-5.9463,-5.9665,-5.9773,-5.9752,-5.9862,-5.9935,-5.9968,-6.0064,-6.01,-6.0209,-6.0153,-6.0191,-6.0275,-6.0316,-6.0432,-6.0302,-6.0437,-6.0442,-6.0416,-6.0661,-6.0693,-6.0884,-6.0583,-6.0587,-6.0591,0,-5.9485,-5.9578,-5.9791,-5.9876,-5.9921,-6.002,-6.0124,-6.0216,-6.0298,-6.0316,-6.0387,-6.0382,-6.0511,-6.0427,-6.0604,-6.0515,-6.0571,-6.06,-6.0608,-6.0621,-6.0526,-6.068,-6.0946,-6.0974,-6.0633,-6.063,-6.0627,0,-5.9637,-5.9814,-5.9965,-6.0011,-6.0114,-6.0183,-6.0229,-6.0306,-6.0372,-6.0462,-6.0505,-6.0609,-6.0666,-6.0746,-6.0769,-6.0705,-6.0945,-6.0863,-6.0963,-6.0963,-6.1015,-6.1011,-6.1293,-6.1052,-6.1051,-6.1051,-6.105,0,-5.9858,-5.9989,-6.0034,-6.0126,-6.0272,-6.029,-6.0434,-6.0475,-6.0543,-6.0643,-6.063,-6.0723,-6.0748,-6.0846,-6.0864,-6.1008,-6.1034,-6.1051,-6.1054,-6.1053,-6.105,-6.1089,-6.1077,-6.1058,-6.1057,-6.1055,-6.1054,0,-6.0052,-6.0087,-6.025,-6.0334,-6.0358,-6.0462,-6.0533,-6.0622,-6.0653,-6.0779,-6.081,-6.0859,-6.0973,-6.1004,-6.1141,-6.1153,-6.1322,-6.1313,-6.1295,-6.1295,-6.1393,-6.1383,-6.171,-6.1753,-6.1484,-6.1486,-6.1489,0,-6.0191,-6.0291,-6.0387,-6.0453,-6.0502,-6.0609,-6.0676,-6.0697,-6.0768,-6.0869,-6.0945,-6.1058,-6.1149,-6.1332,-6.1379,-6.1484,-6.1477,-6.1584,-6.1492,-6.1487,-6.1478,-6.1472,-6.1481,-6.1601,-6.1604,-6.1606,-6.1608,0,-6.0434,-6.0446,-6.0545,-6.065,-6.0731,-6.0815,-6.0895,-6.0949,-6.0981,-6.1061,-6.1179,-6.1249,-6.1389,-6.1501,-6.1606,-6.1652,-6.1636,-6.1637,-6.1665,-6.1664,-6.1649,-6.1658,-6.1342,-6.1629,-6.1627,-6.1625,-6.1624,-6.1623,-6.0604,-6.0692,-6.0773,-6.0883,-6.0946,-6.1021,-6.1108,-6.1151,-6.1249,-6.1365,-6.1371,-6.1499,-6.1577,-6.1717,-6.1768,-6.1867,-6.1835,-6.1877,-6.1887,-6.1897,-6.1905,-6.1634,-6.1886,-6.1886,-6.1885,-6.1885,-6.1884,0,-6.0846,-6.0897,-6.0998,-6.1111,-6.1197,-6.1175,-6.1263,-6.1336,-6.1448,-6.1523,-6.1614,-6.1748,-6.1856,-6.1913,-6.202,-6.2088,-6.2083,-6.2116,-6.211,-6.2121,-6.1928,-6.1893,-6.2118,-6.2118,-6.2118,-6.2117,-6.2117,-6.2117,-6.0982,-6.113,-6.1152,-6.133,-6.138,-6.1505,-6.1557,-6.1626,-6.1686,-6.1837,-6.1927,-6.1963,-6.2031,-6.2143,-6.2241,-6.2254,-6.2294,-6.2331,-6.234,-6.2159,-6.2135,-6.2112,-6.2079,-6.2339,-6.2339,-6.2525,-6.2526,-6.2528]}]]